AirNav  
 
 831 users online  

T15 Marlin Airport
Marlin, Texas, USA

GOING TO MARLIN?


FAA INFORMATION EFFECTIVE 22 APRIL 2021

Location

FAA Identifier: T15
Lat/Long: 31-20-26.4000N 096-51-07.3000W
31-20.440000N 096-51.121667W
31.3406667,-96.8520278
(estimated)
Elevation: 410.7 ft. / 125.2 m (surveyed)
Variation: 05E (2000)
From city: 3 miles NE of MARLIN, TX
Time zone: UTC -5 (UTC -6 during Standard Time)
Zip code: 76661

Airport Operations

Airport use: Open to the public
Activation date: 07/1960
Control tower: no
ARTCC: FORT WORTH CENTER
FSS: FORT WORTH FLIGHT SERVICE STATION
NOTAMs facility: FTW (NOTAM-D service available)
Attendance: UNATNDD
Wind indicator: lighted, WINDSOCK MAY BE UNREL DUE TO TREES IN PROXIMITY AND MAST NOT VERTICAL.
Segmented circle: yes
Lights: SS-SR
Beacon: white-green (lighted land airport)
Operates sunset to sunrise.

Airport Communications

CTAF: 122.9
WACO APPROACH: 127.65
WACO DEPARTURE: 127.65
  • APCH/DEP CTL SVC PRVDD BY FORT WORTH ARTCC (ZFW) ON FREQS 133.3/269.5 (WACO RCAG) WHEN WACO APCH CTL (ACT) CLSD.

Nearby radio navigation aids

VOR radial/distance  VOR name  Freq  Var
ACTr123/28.8WACO VORTAC115.3009E

 
NDB name  Hdg/Dist  Freq  Var  ID
ROBINSON128/14.840003EROB .-. --- -...
MEXIA220/25.032904ELXY .-.. -..- -.--

Airport Services

Parking: tiedowns
Airframe service: NONE
Powerplant service: NONE
Bottled oxygen: NONE
Bulk oxygen: NONE

Runway Information

Runway 17/35

Dimensions: 3021 x 50 ft. / 921 x 15 m
Surface: asphalt, in fair condition
CRACKS W/VEGETATION GROWING THROUGH PVMNT.
Weight bearing capacity: 
Single wheel: 4.0
Runway edge lights: low intensity
RWY 17/35 NSTD LIRL NON STD FIXTURES, NON-FRANGIBLE MOUNTING. NMRS LIGHTS KNOCKED OVER. OPR STATUS OF LIGHTS UNKNOWN. VEGETATION OBSCURES LIGHTS; NORTH 2900 FT LGTD.
Runway edge markings: MKGS FADED. NSTD DSPLCD THLD MKGS YELLOW.
RUNWAY 17  RUNWAY 35
Latitude: 31-20.689823N31-20.191620N
Longitude: 096-51.116752W096-51.127988W
Elevation: 410.4 ft.401.9 ft.
Traffic pattern: leftleft
Runway heading: 176 magnetic, 181 true356 magnetic, 001 true
Displaced threshold: no90 ft.
Markings: basic, in poor conditionbasic, in poor condition
Touchdown point: yes, no lightsyes, no lights
Obstructions: 54 ft. trees, 1030 ft. from runway, 15:1 slope to clear
+8 FT BRUSH 60 FT FM THLD 100 FT L OF CNTRLN.
8 ft. fence, 201 ft. from runway, 75 ft. right of centerline
+8 FT FENCE 50 FT RIGHT & 80-200 FT SOUTH OF DSPLCD THLD.

Airport Ownership and Management from official FAA records

Ownership: Publicly-owned
Owner: CITY OF MARLIN
PO BOX 980
MARLIN, TX 76661
Phone 254-883-1450
Manager: ANDREW POE
PO BOX 980
MARLIN, TX 76661
Phone 254-883-1450
EXT 237.

Airport Operational Statistics

Aircraft based on the field: 1
Single engine airplanes: 1
    
Aircraft operations: avg 29/month *
86% transient general aviation
14% military
* for 12-month period ending 16 April 2019

Additional Remarks

RWY 35 DSPLCD THLD MKGS NOT COINCIDENT WITH DSPLCD THLD LIGHTS.
FOR CD CTC FORT WORTH ARTCC AT 817-858-7584.

Instrument Procedures

NOTE: All procedures below are presented as PDF files. If you need a reader for these files, you should download the free Adobe Reader.

NOT FOR NAVIGATION. Please procure official charts for flight.
FAA instrument procedures published for use from 22 April 2021 at 0901Z to 20 May 2021 at 0900z.

 
IAPs - Instrument Approach Procedures
VOR/DME OR GPS-A   download (186KB)
NOTE: Special Take-Off Minimums/Departure Procedures apply   download (70KB)

Other nearby airports with instrument procedures:

KCNW - TSTC Waco Airport (21 nm NW)
KLXY - Mexia-Limestone County Airport (25 nm NE)
KACT - Waco Regional Airport (25 nm NW)
KPWG - Mc Gregor Executive Airport (25 nm W)
KLHB - Hearne Municipal Airport (30 nm SE)
 
Loc | Ops | Rwys | IFR | FBO | Links
Com | Nav | Svcs | Stats | Notes

City of Fort Worth
 
Area around T15 (Marlin Airport)
 
Road maps at: MapQuest Bing Google
 
Aerial photo
WARNING: Photo may not be current or correct
Aerial photo of T15 (Marlin Airport)
Do you have a better or more recent aerial photo of Marlin Airport that you would like to share? If so, please send us your photo.

 
Sectional chart

 
Airport distance calculator
Flying to Marlin Airport? Find the distance to fly.

From to T15

Sunrise and sunset
Times for 22-Apr-2021
 Local
(UTC-5)
 Zulu
(UTC)
Morning civil twilight06:2711:27
Sunrise06:5211:52
Sunset19:5900:59
Evening civil twilight20:2501:25

Current date and time
Zulu (UTC)  22-Apr-2021 12:03:40
Local (UTC-5)  22-Apr-2021 07:03:40
 
METAR
KCNW 
21nm NW 
221155Z 00000KT 10SM OVC075 09/06 A3017
KPWG 
25nm W 
221156Z AUTO 14004KT 10SM BKN050 OVC075 11/02 A3018 RMK AO2 SLP217 7//// T01060022 10106 20067 53014
KLXY 
25nm NE 
221155Z AUTO 13004KT 10SM OVC080 10/03 A3017 RMK AO2 T00950027 10101 20085
KACT 
26nm NW 
221151Z 00000KT 10SM OVC075 10/05 A3017 RMK AO2 SLP213 T01000050 10100 20056 53014
KT35 
28nm S 
221155Z AUTO 00000KT 10SM SCT050 OVC090 09/04 A3016 RMK AO2 T00900044 10090 20060
KLHB 
31nm SE 
221155Z AUTO 00000KT 10SM SCT055 OVC090 11/03 A3018 RMK AO2 T01060033 10115 20096
KTPL 
31nm SW 
221151Z AUTO 00000KT 10SM OVC050 10/03 A3017 RMK AO2 SLP211 T01000028 10100 20067 53014
TAF
KACT 
26nm NW 
221120Z 2212/2312 09004KT P6SM OVC060 FM221800 13010KT P6SM OVC035 FM230100 14009KT P6SM OVC025 FM230500 15008KT 5SM BR OVC007 TEMPO 2305/2309 2SM -DZ BR FM230900 14007KT 2SM BR VCSH OVC004
NOTAMs
Click for the latest NOTAMs
NOTAMs are issued by the DoD/FAA and will open in a separate window not controlled by AirNav.

 

 
 

Would you like to see your business listed on this page?

 If your business provides an interesting product or service to pilots, flight crews, aircraft, or users of the Marlin Airport, you should consider listing it here.  To start the listing process, click on the button below
 
Add a business
 

Other Pages about Marlin Airport

Update a link
 
Copyright © AirNav, LLC. All rights reserved. Privacy Policy  Contact